Location: Daybis Observatory
(33.4273°N, 88.8061°W)
Time: 06:31:03
(UTC-05:00)

Daily predictions for brighter satellites

Satellite Brightness Start Highest point End
(mag) Time Altitude Azimuth Time Altitude Azimuth Time Altitude Azimuth
Cosmos 1626 Rocket 4.4 20:26:29 10° SSE 20:30:22 30° E 20:34:14 10° NNE
Cosmos 1666 3.6 20:29:42 10° NNE 20:33:14 32° E 20:36:45 10° SE
Cosmos 1025 Rocket 4.2 20:29:14 10° SSW 20:33:28 47° W 20:37:41 10° N
SL-16 R/B 3.4 20:28:52 10° SW 20:34:18 47° WNW 20:39:45 10° N
Cosmos 2228 3.7 20:30:19 10° N 20:34:26 38° E 20:38:32 10° SSE
Lacrosse 4 Rocket 3.2 20:33:26 10° ESE 20:34:37 11° ESE 20:35:48 10° E
CZ-2C R/B 2.0 20:34:37 11° SE 20:36:19 20° ENE 20:38:06 10° NNE
Cosmos 2034 Rocket 4.5 20:34:00 10° N 20:40:01 43° E 20:45:57 10° SSE
CZ-2D R/B 3.4 20:37:32 10° S 20:41:26 79° W 20:45:21 10° NNW
Cosmos 1331 Rocket 4.5 20:48:08 10° NNW 20:53:15 61° WSW 20:58:19 10° S
Cosmos 1743 4.0 20:50:39 10° NNW 20:54:16 41° W 20:57:51 10° SSW
Atlas Centaur 2 2.9 20:50:56 10° WSW 20:57:46 67° S 21:05:58 10° E
Meteor 1-15 Rocket 4.2 20:52:25 10° N 20:58:03 78° E 21:03:45 10° SSE
Resurs 01 Rocket 4.5 20:58:21 10° WSW 21:00:34 13° W 21:02:46 10° WNW
Cosmos 1461 2.8 20:57:57 10° NNW 21:02:11 73° ENE 21:05:02 18° SE
ATLAS 3B R/B 3.2 20:55:57 10° S 21:03:11 46° ESE 21:10:23 10° NE
Cosmos 1603 3.9 20:58:00 10° SSW 21:03:37 74° WNW 21:09:13 10° NNE
BREEZE-M DEB (TANK) 4.0 20:57:24 10° WSW 21:04:04 48° NW 21:06:36 10° NE
ISS -1.1 21:01:24 10° W 21:04:18 29° NW 21:07:14 10° NNE
Cosmos 1302 Rocket 4.1 21:00:40 10° NNW 21:05:56 83° WSW 21:10:55 11° SSE
ALOS 3.1 21:01:53 10° S 21:06:24 51° W 21:10:58 10° NNW
Abrixas rocket 2.8 21:03:45 10° WNW 21:07:05 52° SW 21:09:03 22° SSE
FENGYUN 3A 4.3 21:03:53 10° S 21:09:08 56° W 21:14:27 10° NNW
GEOS 3 Rocket 3.6 21:06:57 17° SE 21:11:01 76° NE 21:16:16 10° NNW
Meteor 2-9 Rocket 4.5 21:06:01 10° NNW 21:11:45 75° W 21:17:34 10° S
Cosmos 1939 Rocket 3.0 21:14:42 21° SSE 21:17:19 61° ENE 21:21:25 10° N
Cosmos 1891 Rocket 4.4 21:11:58 10° N 21:18:05 87° W 21:24:06 10° S
Milstar 3 Cent rocket 3.6 21:14:24 10° W 21:21:25 29° SSW 21:24:28 18° SSE
ERS-1 Rocket 3.1 21:17:08 12° S 21:21:51 73° WSW 21:26:52 10° NNW
USA 186 4.2 21:21:17 10° SW 21:23:08 16° W 21:24:55 10° NW
BREEZE M DEB (TANK) 4.0 21:23:45 10° NNW 21:24:40 12° N 21:25:31 10° NE
Cosmos 1943 3.1 21:19:23 10° S 21:24:58 66° ESE 21:30:36 10° NNE
SPOT 5 3.0 21:23:01 27° SE 21:25:02 47° ENE 21:29:12 10° N
Cosmos 1943 Rocket 4.3 21:23:23 10° NE 21:25:09 11° NE 21:26:54 10° ENE
CZ-4 SHROUD 3.4 21:28:45 44° ESE 21:29:21 53° ENE 21:32:27 10° N
Envisat 2.9 21:31:25 25° SSE 21:34:24 76° ENE 21:39:29 10° N
Cosmos 1346 Rocket 3.4 21:34:25 35° ESE 21:34:39 35° E 21:38:15 10° NNE
Delta 168 4.0 21:32:37 10° SW 21:35:06 23° S 21:35:06 23° S
COSMOS 2455 3.7 21:30:29 10° SW 21:36:19 53° WNW 21:42:11 10° NNE
Cosmos 407 Rocket 3.7 21:34:32 23° SSE 21:37:35 51° ESE 21:42:39 10° NNE
Cosmos 1825 Rocket 3.5 21:38:25 32° SSE 21:40:20 63° E 21:44:43 10° NNE
PSLV R/B 3.0 21:41:01 69° SE 21:41:19 81° ENE 21:44:25 10° N
USA 238 DEB 4.3 21:43:03 27° SSE 21:45:43 36° ESE 21:52:02 10° NE
USA 238 4.3 21:43:19 28° SSE 21:45:49 36° ESE 21:52:07 10° NE
Cosmos 1812 Rocket 4.1 21:47:10 10° NNW 21:51:28 57° W 21:53:47 26° SSW
ATLAS 5 CENTAUR R/B 3.3 21:49:12 10° SSW 21:49:42 13° SSW 21:49:42 13° SSW
ARGOS 3.6 21:55:38 37° ESE 21:57:01 45° ENE 22:02:09 10° N
Cosmos 1954 Rocket 4.3 21:57:35 42° ESE 21:58:06 44° ESE 22:03:06 10° NNE
NAVSTAR 52 R/B(PAM-D 4.5 21:53:42 10° WNW 21:58:30 78° NNE 21:58:48 71° ENE
H-2A R/B 3.7 21:56:28 15° SSW 21:59:19 28° W 22:03:05 10° NW
Cosmos 1900 4.4 21:54:32 10° SSW 21:59:41 84° WNW 22:04:51 10° NNE
MetOp-B 4.1 22:06:19 40° S 22:08:17 79° WSW 22:13:41 10° NNW
Cosmos 1766 4.2 22:07:45 10° N 22:10:50 37° NE 22:10:50 37° NE
Cosmos 2369 Rocket 2.1 22:06:55 10° NNW 22:12:36 81° ENE 22:13:56 54° SSE
Lacrosse 4 Rocket 2.5 22:09:01 10° SW 22:12:52 43° WNW 22:16:45 10° N
Cosmos 1992 Rocket 4.2 22:08:46 10° NNW 22:13:57 65° WSW 22:15:24 45° SSW
Cosmos 2142 Rocket 4.4 22:08:46 10° N 22:15:04 88° W 22:17:20 42° S
USA 245 4.2 22:13:37 47° SSE 22:15:27 89° ENE 22:20:41 10° NNW
USA 81 4.2 22:10:47 10° N 22:16:03 73° W 22:17:46 43° SSW
Mugunghwa Rocket 4.5 22:10:16 10° SW 22:15:29 39° S 22:15:29 39° S
SeaSat 1 2.5 22:18:29 58° S 22:19:23 74° WSW 22:24:20 10° NNW
NOAA 11 4.1 22:20:26 59° SE 22:21:19 71° ENE 22:26:42 10° N
Cosmos 1634 Rocket 4.1 22:17:43 10° N 22:23:51 71° W 22:26:12 40° SSW
SL-08 RB Rocket 3.6 22:25:26 71° ENE 22:25:26 71° ENE 22:29:51 10° N
Cosmos 1953 Rocket 4.4 22:26:34 37° SW 22:27:45 47° W 22:32:02 10° N
YAOGAN 6 3.5 22:29:04 45° W 22:29:04 45° W 22:32:21 10° NNW
Geosat 3.8 22:25:58 10° NNE 22:31:01 80° ESE 22:31:14 78° SSE
H-2A R/B 2.4 22:36:00 47° ENE 22:36:00 47° ENE 22:40:32 10° N
Cosmos-2242 3.8 22:34:55 10° N 22:38:15 45° NNE 22:38:15 45° NNE
CZ-4C R/B 4.0 22:41:12 58° NNW 22:41:12 58° NNW 22:44:31 10° NNW
CZ-4C R/B 4.2 22:45:27 14° ENE 22:45:27 14° ENE 22:46:26 10° NE
Cosmos 2263 4.1 22:37:52 10° NNW 22:43:30 77° WSW 22:43:55 72° SSW
SPOT 1/Viking Rocket 4.2 22:43:57 43° SW 22:44:42 47° W 22:49:40 10° NNW
Cosmos 2279 Rocket 3.9 22:38:33 10° N 22:44:49 85° W 22:45:52 65° S
COSMOS 2406 3.0 22:45:47 79° ESE 22:45:47 79° ESE 22:51:28 10° NNE
Cosmos 1607 3.8 22:45:43 71° SE 22:45:51 71° ESE 22:52:03 10° NNE
Cosmos 1140 Rocket 3.5 22:47:55 76° NE 22:47:55 76° NE 22:52:47 10° NNE
Atlas Centaur 2 2.9 22:39:52 10° W 22:47:32 68° S 22:49:12 56° SE
Landsat 7 4.0 22:54:04 67° NW 22:54:04 67° NW 22:58:15 10° NNW
ATLAS 3B R/B 4.3 22:47:06 10° WSW 22:54:03 36° NW 23:00:55 10° NNE
Cosmos 1953 3.9 22:57:26 10° N 22:59:43 33° N 22:59:43 33° N
Spot 4 4.5 23:04:06 51° NNE 23:04:06 51° NNE 23:07:46 10° N
NOSS 3-2 (A) 4.4 23:05:22 34° ENE 23:05:22 34° ENE 23:09:19 10° NE
USA 234 3.1 23:06:31 75° SE 23:07:10 88° NE 23:13:46 10° NW
Terra 2.4 23:10:21 54° NNW 23:10:21 54° NNW 23:14:04 10° NNW
Cosmos 1943 Rocket 2.2 23:03:59 10° NNW 23:09:02 74° NNW 23:09:02 74° NNW
DMSP B5D2-2 4.4 23:07:38 10° N 23:12:38 64° WNW 23:12:38 64° WNW
Cosmos 1656 Rocket 4.3 23:14:56 10° N 23:19:41 49° NE 23:19:41 49° NE
Cosmos 1092 Rocket 4.4 23:47:06 56° WNW 23:47:06 56° WNW 23:53:11 10° N
Meteor 2-5 Rocket 4.3 23:54:17 55° NW 23:54:17 55° NW 23:59:05 10° N
